Wind_Speed
4 2 2 4 6 6 3 2 2 2 3 3 3 3 4 5 5 5 3 1 4 5 4 6 6 7 6 5 5 5 5 6 7 8 7 6 7 8 9 8 9 9 9 16 27 32 35 35 36 38 36 34 32 30 29 27 24 22 20 19 17 14 11 12 12 11 10 10 11 11 13 14 12 10 7 6 4 3 2 1 3 5 5 5 6 5
5 4 6 7 8 7 5 4 5 5 5 4 3 3 5 4 4 3 1 1 4 4 3 2 1 5 5 5 5 2 4 6 7 8 7 7 8 7 9 9 8 7 7 13 19 24 31 32 33 36 35 35 34 32 32 29 27 24 22 20 17 14 12 10 10 12 12 11 13 13 13 13 11 11 8 6 6 5 4 5 6 6 4 5 6 5
4 4 9 9 5 4 3 5 7 5 4 4 3 3 3 4 4 4 2 4 6 3 2 4 4 5 6 6 7 5 4 6 8 10 9 9 8 8 9 8 8 7 7 11 12 16 25 29 31 32 32 35 35 33 33 31 29 27 24 21 18 16 13 11 13 15 13 12 13 12 12 11 10 10 8 7 8 5 4 5 6 4 3 1 1 3
4 5 11 9 4 2 1 4 6 5 4 2 2 2 2 4 4 4 3 3 4 2 1 3 4 5 6 6 6 8 7 6 9 11 9 8 8 8 9 8 8 9 7 11 13 13 20 26 27 29 31 33 34 33 33 32 31 30 26 22 20 18 15 14 14 14 12 12 12 10 10 11 9 9 9 8 8 6 6 5 4 3 2 2 1 1
6 6 7 6 5 3 0 2 4 5 3 4 3 2 3 4 5 4 2 1 3 2 1 2 5 5 5 6 7 8 8 6 8 11 9 7 8 7 8 7 7 9 8 10 13 11 13 20 25 29 32 32 33 33 33 34 33 31 27 24 23 21 18 16 14 14 15 13 13 10 11 12 9 10 11 9 8 7 7 7 4 2 2 1 0 2
8 5 7 8 4 3 2 1 1 5 0 4 4 6 6 6 8 6 1 3 5 5 4 2 2 5 5 6 8 7 6 7 7 11 11 8 7 6 6 7 6 7 7 8 11 12 14 20 25 28 31 31 31 33 35 35 33 31 28 26 25 23 21 18 16 17 17 14 14 13 14 14 12 12 12 10 9 8 7 7 5 3 2 1 2 1
4 4 7 8 6 4 3 1 2 5 3 3 4 5 6 7 9 9 3 3 2 2 4 4 4 4 5 5 9 7 7 10 8 10 11 9 8 8 7 8 8 7 7 7 7 10 15 20 22 24 29 31 31 34 36 35 33 31 28 27 26 24 23 21 19 19 17 15 14 14 15 15 14 14 13 11 9 8 6 6 6 6 5 2 2 2
2 3 2 3 5 4 4 3 4 5 4 3 4 5 5 6 8 10 7 2 3 3 3 3 5 2 4 7 9 6 6 9 8 9 10 9 10 11 10 10 10 10 9 8 7 10 14 18 22 25 29 32 34 35 35 35 34 32 29 27 27 25 24 23 22 20 17 15 15 14 13 13 15 16 13 10 9 8 7 6 7 6 5 4 4 3
3 4 3 3 2 3 4 4 6 6 5 5 5 6 6 4 3 3 3 3 1 2 5 4 4 2 4 7 8 6 5 7 9 11 11 9 11 12 12 12 12 12 10 9 10 12 14 19 25 29 32 33 35 36 36 36 35 33 30 28 28 27 26 25 23 21 18 16 15 15 13 12 14 15 11 9 8 9 8 6 7 7 6 6 7 6
3 5 8 6 4 4 3 5 6 5 6 6 3 2 2 2 4 3 2 2 2 1 5 6 4 2 4 6 7 5 4 7 8 10 10 11 12 11 11 11 11 11 11 11 10 11 17 24 29 31 33 33 34 37 37 36 35 34 32 30 29 29 27 26 24 21 18 17 17 17 15 13 14 13 10 9 11 10 9 7 7 8 8 6 5 6
5 1 5 4 3 3 3 5 6 6 8 6 4 2 3 4 4 3 2 2 3 3 7 7 5 4 4 5 6 4 5 7 6 5 5 9 11 9 9 8 9 10 10 9 8 9 15 24 29 30 30 29 32 35 36 35 34 34 33 32 31 30 27 26 25 22 20 19 19 19 17 16 16 14 12 14 15 13 11 10 7 7 8 8 6 6
6 3 1 2 3 3 3 5 5 6 5 5 4 3 4 4 5 3 3 2 1 5 8 7 6 4 4 6 6 6 6 4 4 5 2 5 8 8 8 7 8 8 8 9 8 8 10 15 21 25 26 28 30 32 33 34 34 34 34 33 32 30 28 27 26 24 22 20 20 20 18 17 17 16 16 18 18 15 13 12 10 9 8 8 7 6
5 5 5 3 5 6 3 3 5 7 1 5 4 4 3 2 3 1 2 1 3 7 6 5 5 4 5 7 9 9 7 3 3 4 5 7 7 7 8 7 7 7 9 9 9 9 8 9 14 20 24 27 29 31 33 35 34 33 34 34 32 31 29 28 26 25 24 22 21 20 19 18 17 17 18 18 16 15 15 13 12 11 10 9 9 7
3 6 7 4 4 7 6 3 2 4 1 3 4 4 3 2 1 3 4 3 4 5 6 5 4 4 4 6 8 9 7 5 5 6 7 8 9 8 8 7 7 7 9 9 10 10 9 9 14 21 26 28 30 33 35 35 35 34 33 35 34 32 31 30 28 27 26 25 23 21 20 19 18 18 18 16 16 16 16 13 13 13 11 10 9 8
2 5 6 5 2 7 7 6 6 4 3 4 5 5 5 4 3 4 3 2 3 2 5 4 2 4 4 6 7 6 6 4 2 3 4 5 5 7 5 6 8 8 9 10 11 12 11 13 18 23 27 29 31 34 36 37 37 35 34 35 34 32 32 31 30 28 27 26 24 22 21 20 20 19 18 16 15 16 15 13 13 13 12 10 9 8
1 4 5 5 5 10 10 8 7 3 3 3 2 4 5 5 5 4 3 4 2 1 3 2 2 4 4 6 7 7 8 8 5 1 1 2 3 7 5 5 6 6 6 9 11 12 12 15 21 23 25 29 32 34 35 36 38 36 35 36 35 33 33 32 31 29 28 26 25 24 22 21 21 19 18 17 15 14 14 13 13 12 11 11 9 7
1 5 4 4 4 5 7 8 8 5 3 3 2 3 5 6 6 4 3 0 2 2 3 1 2 5 4 6 7 7 9 8 7 5 2 1 2 4 5 5 6 5 4 5 7 9 10 14 19 23 26 28 30 32 34 36 38 38 37 36 35 33 33 33 31 30 29 27 26 25 23 22 21 20 19 18 16 14 15 15 13 12 11 10 9 8
2 3 6 6 8 8 5 3 5 6 6 3 3 3 3 2 1 2 1 1 2 2 3 1 3 5 4 4 6 7 8 8 6 5 5 4 4 2 1 1 4 5 6 5 5 7 11 13 18 22 25 29 32 34 36 38 39 39 38 38 35 33 33 33 32 31 30 29 27 26 25 23 22 21 20 19 17 16 16 16 14 13 11 10 9 8
3 1 5 5 7 10 8 4 3 2 4 5 6 4 1 1 1 1 1 2 2 2 3 4 5 4 3 4 6 7 5 5 5 4 6 7 6 4 5 5 4 3 1 3 2 6 10 12 17 22 25 29 33 35 37 38 38 38 38 38 36 35 35 35 34 33 31 30 28 27 26 24 23 22 20 19 18 18 18 17 15 13 11 9 9 9
3 1 3 4 7 9 8 4 3 4 5 5 5 3 1 3 3 2 3 3 3 3 3 4 4 3 5 5 1 3 3 4 5 6 7 9 8 5 6 7 7 7 5 5 3 3 8 11 18 25 28 30 33 35 36 37 37 37 36 37 36 35 36 36 35 34 32 30 29 27 27 25 24 23 22 20 20 19 19 17 15 12 11 10 11 10
3 2 2 4 7 7 4 3 3 4 5 5 4 4 3 1 0 1 2 2 3 3 2 3 4 5 6 2 5 6 5 6 7 6 6 8 8 7 7 7 7 8 7 6 5 1 4 10 17 24 27 31 34 34 35 35 35 37 36 36 37 36 35 36 36 35 34 32 30 28 28 27 25 24 23 22 21 19 18 17 15 13 12 12 12 10
2 2 2 2 3 3 5 6 7 8 7 5 3 3 4 3 1 2 4 2 2 3 3 2 3 6 7 3 4 6 5 5 6 5 5 5 7 7 6 6 6 7 8 7 6 6 3 2 12 21 22 22 24 25 27 30 32 34 36 37 38 36 36 37 37 36 34 32 31 30 28 27 26 25 24 23 22 20 18 16 14 14 13 12 11 11
1 2 0 3 3 5 7 9 11 14 12 9 6 4 4 3 2 3 4 3 1 3 4 4 3 7 7 2 4 5 5 5 6 6 5 5 6 7 8 8 7 7 6 7 7 6 6 7 1 14 21 21 24 27 28 28 31 34 37 37 37 36 37 39 39 38 36 33 32 30 29 27 26 25 24 23 22 21 18 16 15 14 13 12 11 11
2 2 1 3 3 4 6 7 10 12 10 8 6 3 3 4 2 4 5 3 2 3 3 4 3 6 6 0 4 4 5 6 6 6 7 7 6 7 8 9 9 8 6 7 8 6 6 10 10 1 10 12 16 26 32 33 34 35 36 36 37 37 38 40 40 37 36 34 32 30 29 28 27 26 24 23 22 21 18 16 15 13 13 12 12 12
1 0 1 2 4 5 5 4 5 6 5 3 4 5 5 6 5 2 1 2 1 3 4 4 4 6 5 3 4 6 7 7 6 6 8 7 7 8 8 8 8 9 9 8 7 7 7 8 8 5 5 5 7 11 23 32 35 36 36 37 38 39 39 39 39 38 36 35 33 31 30 28 27 26 25 24 22 20 18 16 14 13 13 12 12 12
2 1 2 2 2 3 2 2 1 4 5 3 5 7 8 9 8 4 2 2 1 4 3 3 4 6 7 7 8 7 7 7 7 8 8 7 7 8 8 8 8 8 10 10 9 7 7 7 6 1 8 10 5 8 13 19 25 31 36 39 39 38 38 38 38 38 37 35 34 32 31 29 29 27 25 24 21 19 17 15 15 14 13 13 12 12
2 2 2 4 6 5 5 5 4 7 7 7 9 10 9 9 7 3 2 1 2 3 4 4 5 6 8 8 8 5 4 6 7 8 7 7 7 8 8 9 10 10 9 10 9 9 9 8 8 7 3 11 8 6 9 8 8 10 17 27 35 35 35 37 38 37 36 35 34 33 32 30 29 28 26 23 21 19 17 15 15 15 14 13 12 12
3 1 4 5 8 8 7 8 9 9 10 11 12 13 12 8 6 5 3 5 4 2 5 6 4 4 7 9 9 6 4 3 3 4 4 4 5 6 8 9 11 12 11 10 9 9 10 9 9 11 6 10 14 10 11 11 8 4 11 15 23 33 35 36 37 37 35 34 33 32 32 30 29 27 25 23 21 19 17 16 15 14 13 13 12 12
3 3 5 6 9 10 8 9 9 9 11 11 12 14 13 8 6 6 8 9 6 4 6 8 6 5 8 9 9 8 5 4 5 5 5 4 4 5 7 8 9 9 10 10 9 7 8 8 9 11 12 9 16 17 14 14 16 15 10 17 17 22 33 37 37 35 34 33 32 32 31 29 27 25 23 22 20 19 17 16 14 13 13 14 14 14
3 3 6 7 8 9 8 8 9 9 10 11 14 14 10 7 7 8 9 8 7 6 7 7 8 8 8 7 7 7 4 3 3 3 3 5 5 5 6 6 6 7 8 9 9 8 8 8 9 11 13 11 8 16 20 18 19 21 22 20 17 15 24 35 36 34 34 33 32 31 30 28 27 24 22 21 20 18 16 14 14 14 15 15 15 14
1 3 5 4 5 7 6 6 8 9 10 13 15 12 6 6 9 9 9 7 5 6 7 6 8 8 6 5 6 6 5 4 5 6 7 6 7 8 7 7 7 7 8 9 10 10 10 9 9 9 12 16 11 4 14 18 20 22 27 29 24 18 21 29 34 33 33 32 31 30 29 28 26 24 22 20 19 17 14 13 14 15 15 15 14 12
1 2 2 1 4 5 3 4 8 9 10 14 14 9 5 6 7 6 6 6 5 6 7 7 6 7 7 5 5 6 7 7 7 7 7 6 7 7 7 7 7 7 8 9 9 10 10 9 9 9 10 16 16 6 4 10 16 20 24 28 28 22 17 20 27 30 31 30 30 30 29 27 25 24 21 19 17 14 13 14 14 14 14 13 11 11
1 1 2 2 5 3 3 4 6 6 7 10 8 4 4 6 7 6 6 6 5 4 3 4 5 5 6 6 7 8 9 8 7 6 5 5 6 7 6 6 6 7 8 8 8 10 10 9 10 12 14 18 18 13 6 6 14 21 25 27 27 23 18 16 19 25 28 30 29 29 27 25 24 21 18 15 13 13 13 14 14 13 12 10 10 10
2 2 1 1 3 3 1 2 4 5 6 7 3 1 3 5 5 6 7 5 3 2 1 1 1 3 6 8 7 8 7 7 6 5 5 5 5 5 5 5 6 7 8 9 9 10 10 11 15 16 19 22 23 18 9 6 13 18 26 30 28 28 27 22 18 21 27 29 28 26 24 23 21 18 16 14 13 13 13 12 11 10 9 10 11 11
4 3 3 2 3 3 1 6 2 7 7 2 2 3 5 4 2 4 6 3 4 6 4 4 5 6 6 6 6 7 7 8 8 6 6 5 4 5 6 6 7 7 8 8 9 9 9 14 19 21 20 21 24 22 12 6 11 13 21 28 28 29 31 27 21 22 26 27 26 24 22 21 19 17 14 13 12 12 11 10 9 9 10 11 10 8
6 4 3 3 3 3 1 3 4 8 8 4 4 4 4 3 4 5 6 5 5 5 3 4 5 5 5 6 5 6 7 9 7 5 4 5 7 6 6 7 7 7 8 8 8 9 12 15 19 22 22 20 22 24 16 8 12 16 21 27 27 28 29 28 25 24 26 26 25 24 22 20 18 15 12 11 11 10 9 9 9 8 7 6 4 3
8 5 3 4 4 4 4 4 3 7 10 7 4 2 1 1 3 3 1 5 5 5 4 4 5 5 6 6 6 6 7 8 7 5 4 7 9 8 7 7 8 8 8 11 13 16 19 20 20 23 25 23 23 26 22 14 12 15 20 26 29 30 30 29 28 27 27 28 27 24 21 18 16 13 11 11 10 8 7 6 6 4 2 3 4 6
11 8 6 5 4 3 4 4 3 5 7 3 2 2 2 4 6 6 2 3 4 5 5 5 5 6 5 5 6 6 7 7 7 6 5 8 11 11 10 9 9 11 11 14 17 20 21 22 22 23 26 25 25 27 24 18 16 14 12 14 22 28 29 29 29 30 30 30 27 23 20 17 14 12 11 9 7 5 3 2 1 1 4 6 7 9
12 9 6 5 3 3 3 3 4 5 5 1 4 4 2 3 3 4 3 3 5 5 5 4 4 5 5 4 5 6 6 6 7 6 5 8 10 10 10 10 9 13 15 15 16 19 23 25 24 23 26 25 25 28 25 22 24 23 18 14 17 21 23 26 30 33 32 28 25 23 20 16 13 10 9 7 5 4 3 1 1 5 7 7 8 9
5 5 5 6 5 4 4 4 4 4 1 2 2 2 1 2 3 6 2 5 5 4 2 2 1 3 4 2 3 4 2 4 6 8 8 9 11 11 11 10 9 10 14 18 19 22 25 26 23 21 21 20 20 20 21 25 28 29 27 25 24 23 22 26 31 32 31 28 25 23 19 15 12 9 7 5 4 3 2 4 6 6 6 6 6 8
2 1 4 6 6 6 5 4 4 1 1 2 3 3 3 2 5 4 4 6 4 6 5 1 1 2 3 2 1 2 4 6 7 9 10 10 11 11 11 13 14 14 15 19 21 24 25 23 21 19 16 15 19 16 10 18 23 26 26 25 22 20 22 28 32 32 31 28 25 22 18 14 12 9 7 5 4 4 6 7 8 8 8 7 6 9
4 2 0 2 3 4 4 4 3 1 1 4 3 2 2 1 1 3 6 5 3 4 4 3 1 2 3 4 5 5 6 7 9 10 10 9 9 9 10 13 16 15 16 18 19 22 22 20 19 18 13 13 17 11 3 7 11 19 24 23 22 23 26 31 33 32 30 27 24 21 17 14 11 8 6 6 6 6 7 8 9 11 11 8 9 11
3 2 2 2 1 1 0 1 2 1 2 4 2 2 1 2 3 5 4 3 2 1 2 0 2 3 4 4 5 6 6 7 8 9 9 8 8 8 10 13 14 13 14 16 16 17 19 18 18 17 11 12 14 7 3 5 10 17 21 25 28 30 32 33 32 30 28 25 22 19 15 12 9 7 5 5 6 6 7 9 12 13 11 9 9 11
3 2 2 2 1 1 1 1 2 3 3 3 1 2 3 5 5 4 3 3 2 1 2 2 3 4 5 4 5 6 7 7 8 9 8 8 8 9 11 12 14 13 14 15 15 16 18 17 17 14 10 10 12 9 4 6 14 19 23 28 33 35 36 34 31 29 26 22 20 16 13 12 9 7 5 6 6 7 8 10 13 13 10 9 9 10
2 3 1 1 1 1 3 3 3 3 3 2 2 3 6 6 4 1 2 2 2 2 3 2 4 6 5 4 6 6 6 8 8 7 7 8 9 11 12 13 14 15 16 16 16 17 17 15 15 14 12 12 15 12 8 8 12 20 27 33 35 35 36 35 31 27 24 21 19 16 14 12 8 6 5 5 7 8 9 11 13 12 10 9 8 7
3 4 2 2 2 4 3 3 4 5 6 6 5 5 6 7 4 1 2 2 3 3 3 3 5 6 5 5 6 6 7 8 7 7 9 9 10 11 11 13 14 16 17 16 14 16 17 15 15 16 14 15 16 14 16 19 16 22 31 34 35 36 36 33 28 25 23 21 19 16 13 9 8 6 3 5 8 7 7 9 12 10 9 8 6 5
4 5 4 3 4 4 4 4 5 6 7 8 6 5 6 6 5 3 1 3 3 3 3 4 5 6 6 5 6 8 8 7 7 7 8 8 10 11 11 11 13 15 16 15 14 17 17 14 14 15 15 17 21 21 22 20 20 30 34 34 35 35 32 28 24 22 22 21 17 13 11 9 7 4 2 2 4 2 2 6 8 7 7 6 5 5
3 4 4 4 4 3 5 8 9 9 8 5 2 3 4 4 4 5 5 6 5 4 5 5 5 5 5 6 8 8 7 7 6 7 7 7 9 11 10 11 13 13 15 15 15 18 18 14 13 15 16 21 23 17 15 21 30 37 37 34 34 32 29 26 24 22 22 20 16 11 9 7 6 4 4 5 5 4 3 1 3 6 6 5 6 6
4 4 4 4 5 5 7 9 7 7 7 4 2 3 5 5 5 5 7 8 7 6 7 7 6 6 7 8 9 6 5 6 6 6 7 8 8 10 11 11 12 12 12 14 17 19 20 18 18 16 19 25 21 10 23 31 34 36 36 34 32 31 29 26 24 22 21 19 17 12 7 5 5 5 5 6 7 7 6 4 3 4 5 5 7 7
4 6 5 4 4 5 5 5 4 4 6 5 4 5 6 5 5 7 7 8 7 7 7 8 8 9 9 9 7 4 4 6 5 6 7 7 8 11 12 13 14 12 12 16 19 20 21 22 18 10 16 19 14 14 26 29 30 32 32 31 30 29 27 25 23 22 20 19 16 11 7 5 5 5 6 8 9 9 8 5 4 3 4 5 8 7
4 6 5 4 5 6 7 7 5 4 5 6 6 6 6 6 7 8 7 6 7 7 8 8 8 8 8 7 4 3 4 5 5 6 7 7 10 13 14 15 14 10 13 19 19 17 23 23 10 14 18 12 10 19 27 28 29 31 30 29 28 25 24 23 21 19 18 17 13 10 7 4 3 5 8 10 11 11 9 5 3 4 5 7 8 8
Wind_Direction
145 135 236 221 237 224 197 169 189 335 51 59 9 4 336 333 324 343 44 100 118 123 207 184 183 229 245 253 239 228 205 175 183 195 196 184 172 165 164 167 165 175 184 170 166 165 164 163 159 159 160 160 161 161 162 165 167 169 171 172 170 169 163 163 168 172 178 166 145 127 121 122 117 121 117 83 83 104 77 40 121 120 96 100 118 130
146 166 232 227 226 207 161 112 91 37 20 36 40 9 344 328 301 321 78 359 55 96 227 230 186 257 269 288 292 253 188 198 199 199 207 192 179 174 168 171 173 177 173 165 167 166 164 161 159 160 160 160 162 163 166 168 170 173 177 178 176 173 170 177 175 162 161 152 139 131 128 126 118 126 126 101 104 98 57 44 79 118 123 122 122 110
186 213 243 231 213 189 147 84 78 56 20 19 35 31 338 302 301 320 14 26 36 64 294 347 358 289 285 291 295 283 211 212 214 203 205 196 178 172 173 177 181 183 163 159 166 164 164 163 159 160 161 163 165 166 169 172 172 175 180 182 180 179 178 179 173 163 155 149 150 142 134 136 127 126 124 107 114 111 91 79 82 123 168 178 142 123
199 229 237 218 171 162 135 70 72 47 19 6 11 37 288 284 305 318 336 35 65 111 253 348 343 295 293 301 290 267 240 224 216 211 207 193 181 175 175 173 176 187 175 162 170 169 165 165 161 161 164 166 166 168 171 173 175 176 179 182 182 182 182 177 173 177 175 166 165 154 139 141 129 127 131 120 120 115 112 121 129 175 217 321 359 139
219 215 197 159 132 155 229 27 71 66 7 316 294 243 241 274 285 280 277 23 48 27 273 326 346 313 281 278 275 264 254 242 210 205 211 202 191 178 166 168 173 183 178 161 170 173 163 166 167 166 168 168 168 170 173 175 177 178 178 182 184 183 183 179 176 183 183 172 166 156 146 149 143 142 148 139 131 127 128 141 154 187 259 312 123 199
234 213 141 130 149 162 132 329 115 121 98 304 276 234 229 253 275 274 285 47 29 352 290 223 340 299 275 256 258 262 260 251 203 188 202 209 201 189 177 184 184 187 193 179 175 175 168 169 171 170 169 169 170 173 176 178 179 178 177 182 185 184 185 183 181 184 184 175 168 161 153 156 156 154 157 152 143 139 136 145 155 158 159 80 61 145
221 188 136 141 150 138 134 242 213 141 139 279 259 239 228 239 263 264 259 66 85 270 264 179 169 266 293 279 259 248 238 237 212 186 195 197 196 199 201 203 198 197 204 201 180 167 167 168 168 171 172 172 174 177 179 180 181 179 178 183 185 185 186 186 184 185 184 178 173 170 167 168 166 159 155 151 146 147 140 137 146 147 150 141 66 73
166 137 105 130 136 141 159 214 227 162 155 243 246 254 254 241 249 247 233 166 173 241 284 199 170 218 284 277 266 244 226 234 223 208 201 192 195 199 202 205 207 206 196 189 172 156 164 168 167 172 176 177 177 178 179 181 182 182 181 184 187 187 187 187 189 190 189 183 177 179 181 179 179 173 162 149 144 152 153 142 141 142 147 157 150 126
178 151 169 180 176 182 173 212 225 181 186 230 223 241 259 259 275 252 200 164 178 287 302 266 197 211 267 268 278 275 245 239 221 215 209 196 197 197 200 204 206 208 198 189 177 160 163 169 171 175 177 179 179 178 180 181 182 183 184 185 187 189 189 189 193 195 191 184 181 187 187 177 177 175 166 159 159 163 164 153 149 154 152 146 154 163
210 175 176 179 187 200 207 236 229 191 205 217 201 260 304 336 344 13 55 38 18 315 261 255 206 222 277 271 281 292 265 247 222 207 204 204 204 194 194 198 195 199 200 197 186 167 164 171 176 178 177 177 178 178 181 181 182 182 185 187 186 188 190 190 194 195 190 187 190 193 190 183 176 173 173 174 175 175 173 169 158 150 152 148 152 163
258 219 165 175 164 176 226 251 245 229 211 178 130 41 21 350 331 349 8 38 24 300 257 244 214 213 266 275 261 251 254 247 204 169 196 212 209 195 193 197 185 183 192 191 181 166 163 168 175 176 174 174 174 178 181 180 181 182 185 188 187 189 192 192 194 194 189 191 197 195 192 193 187 181 184 182 181 181 178 181 177 156 160 166 166 165
292 317 168 184 145 147 250 273 279 266 219 135 105 71 47 346 333 338 332 62 147 264 255 245 243 227 242 269 261 248 269 272 147 128 139 191 197 197 198 197 180 166 167 170 163 158 153 155 166 171 170 171 172 175 179 180 180 181 184 187 185 187 192 194 194 193 189 192 198 196 194 199 196 191 190 186 185 186 182 186 186 176 176 180 181 184
284 260 235 204 166 167 206 262 298 299 293 98 87 80 76 317 323 305 262 195 210 246 253 242 245 248 240 250 257 252 257 263 179 167 153 156 175 201 207 194 178 158 148 155 157 156 155 151 160 166 167 171 171 173 177 179 180 181 184 186 184 186 191 194 194 193 190 192 197 196 197 202 198 193 192 191 193 192 188 189 188 188 190 188 193 195
283 269 250 231 179 173 175 179 243 280 249 134 129 123 147 194 276 262 237 222 225 254 282 265 227 254 273 259 265 265 248 233 215 205 191 178 169 183 204 183 161 156 144 150 163 164 165 165 166 167 169 172 173 174 176 178 180 181 183 184 183 185 191 194 194 194 193 194 197 198 201 205 202 198 198 198 198 194 193 195 193 193 193 189 194 194
295 288 248 244 197 161 178 189 190 215 225 198 175 155 164 167 191 233 220 208 228 267 297 296 226 230 244 250 272 294 294 297 267 204 209 213 159 135 169 167 155 166 156 155 171 175 175 174 173 172 171 172 174 174 174 176 179 180 181 184 184 184 189 193 194 194 195 197 198 201 205 208 207 207 205 202 200 196 196 198 196 196 198 197 197 198
306 279 236 238 199 167 185 200 190 224 289 262 199 159 179 188 190 218 208 177 167 344 291 279 239 223 222 264 293 314 312 317 324 315 150 212 158 111 123 158 160 171 169 166 175 180 181 175 173 173 173 174 174 174 174 175 178 180 181 184 186 186 189 193 194 195 198 198 198 201 206 207 207 210 207 201 201 202 200 196 195 200 202 203 204 205
259 277 296 311 270 207 200 193 174 179 225 279 279 205 214 205 179 202 258 229 81 343 279 247 298 297 307 309 305 295 283 289 309 321 348 224 211 154 159 168 161 156 163 182 180 176 178 175 175 176 176 176 174 173 175 177 179 180 181 184 186 186 189 193 195 196 197 197 196 200 204 206 208 209 209 205 202 202 202 200 201 205 205 208 212 213
127 262 309 342 317 311 310 229 185 173 180 207 241 230 261 275 153 129 245 345 37 276 273 262 267 278 288 299 295 284 273 275 303 347 23 26 24 11 299 196 178 170 168 188 187 167 172 177 178 177 177 178 177 177 178 179 180 181 184 186 186 185 187 192 197 198 197 196 197 200 203 205 207 208 209 208 205 204 202 203 208 211 212 214 217 223
84 281 306 343 320 322 343 329 290 246 217 228 236 222 102 43 324 21 174 183 181 227 271 276 260 253 234 237 273 286 285 288 309 8 34 19 26 18 358 12 358 341 224 230 216 163 171 179 178 178 180 181 181 181 180 180 181 183 185 187 188 188 190 194 198 198 197 196 198 201 203 204 205 205 205 203 204 207 205 207 212 215 215 212 215 222
80 78 287 337 332 331 351 352 318 304 295 295 285 280 120 158 175 181 206 190 174 208 252 271 268 258 237 211 209 329 7 35 17 34 36 19 19 14 14 28 15 1 344 313 327 148 172 184 185 182 182 183 184 184 183 182 182 184 186 187 189 190 190 192 195 195 195 197 200 202 202 204 204 204 203 202 203 205 206 208 212 211 208 208 216 226
69 88 242 316 341 335 326 296 281 292 309 331 320 298 302 284 116 67 255 202 140 171 219 268 273 257 246 202 86 49 43 58 51 56 56 39 34 26 30 46 34 15 1 341 343 2 177 188 194 192 187 186 187 186 184 184 185 186 187 188 189 189 187 189 192 194 195 196 199 201 201 203 205 204 204 204 205 206 206 208 209 206 208 215 224 237
53 106 217 286 328 293 273 288 305 310 314 323 302 258 251 251 258 296 283 284 108 150 173 181 264 267 269 295 52 52 53 50 42 54 68 60 53 40 33 47 51 32 7 352 354 357 359 189 198 201 196 187 185 188 188 187 187 187 188 189 189 188 186 187 190 193 195 195 196 200 202 203 203 204 205 205 206 208 208 208 207 206 212 223 234 246
43 90 166 254 233 242 267 287 299 302 303 303 294 268 253 239 168 165 230 248 189 194 186 163 218 263 271 302 46 44 41 29 20 30 39 41 51 41 19 13 28 35 9 346 346 354 360 4 282 207 204 189 182 188 192 192 193 191 190 190 188 187 186 188 191 193 193 192 195 198 200 202 202 202 203 204 206 208 208 207 207 211 220 229 240 250
357 65 329 280 274 272 283 288 286 289 295 298 297 306 296 273 222 178 198 194 172 202 187 168 222 265 271 257 77 41 14 11 9 21 24 16 19 25 18 8 1 356 349 337 333 338 348 357 5 293 215 208 195 192 192 193 196 195 192 190 187 187 187 188 190 190 189 189 192 196 198 199 199 199 199 202 204 205 206 208 211 218 226 235 244 252
305 9 60 344 326 324 329 322 303 309 327 318 298 319 321 310 322 336 18 71 118 217 184 168 226 259 270 308 352 346 355 4 4 18 26 17 6 4 6 4 352 341 337 335 328 328 327 329 350 37 69 16 320 240 206 197 194 193 191 190 188 187 187 187 187 185 185 186 188 191 194 195 196 197 197 199 201 202 205 209 215 221 229 237 244 250
163 164 96 117 246 271 267 233 295 343 340 320 303 312 314 312 319 327 353 19 294 253 225 187 226 262 286 312 316 321 352 5 359 7 17 14 4 356 351 346 342 338 328 323 318 310 306 301 298 331 97 81 13 276 225 205 199 194 192 190 188 187 185 183 183 182 182 184 185 188 191 193 194 195 196 197 198 201 205 210 215 221 228 235 242 249
106 142 146 176 214 231 231 250 309 334 316 300 302 303 295 293 307 349 24 324 243 291 303 236 225 271 292 297 293 303 17 26 3 355 353 354 353 347 341 331 324 319 310 307 309 304 297 290 277 267 151 111 119 197 200 196 212 220 213 198 188 183 181 179 178 179 180 181 183 185 187 190 192 193 194 197 198 201 206 211 215 220 228 235 242 247
91 186 200 210 242 256 261 277 300 308 294 288 293 291 283 287 325 356 322 255 239 316 302 265 251 276 278 279 286 302 352 7 316 302 301 317 329 320 316 308 301 301 298 292 291 298 302 297 285 275 243 130 119 152 187 187 183 228 288 258 203 182 177 176 175 176 179 180 181 184 186 187 189 191 193 196 199 201 204 209 215 222 229 234 237 239
135 212 208 214 248 256 259 270 273 266 268 272 273 275 279 295 315 300 271 261 258 253 252 259 268 261 261 279 295 303 310 295 268 246 241 265 290 298 303 302 298 302 308 309 307 316 326 321 314 297 266 196 138 136 162 183 185 188 240 276 249 195 178 175 174 174 176 178 180 183 184 184 185 187 191 193 196 199 202 206 214 221 228 232 235 241
144 207 207 211 248 255 248 260 267 266 270 270 263 264 275 295 293 278 269 265 260 249 246 267 286 273 257 272 290 293 295 295 292 299 317 329 335 344 344 335 332 331 332 334 335 339 342 337 340 333 302 269 189 146 148 161 173 181 196 221 242 226 188 176 172 172 175 176 178 180 181 181 182 184 188 190 192 193 197 204 215 225 231 235 241 250
152 231 215 202 258 265 245 257 274 278 279 276 273 277 299 309 294 287 283 276 273 274 277 302 310 294 271 261 278 295 319 353 10 7 5 7 5 4 2 351 344 346 348 349 346 343 344 344 350 355 336 317 307 167 145 151 163 179 192 197 203 213 200 181 171 170 172 172 174 176 176 177 181 183 185 184 183 187 196 212 224 229 232 237 245 257
155 250 275 274 275 259 205 243 273 285 286 281 281 291 305 294 282 276 267 256 252 264 285 309 304 283 284 299 314 331 353 16 28 27 19 15 7 359 350 343 347 357 358 351 346 345 347 350 351 347 336 328 321 305 159 145 152 165 176 179 179 185 192 183 171 166 166 166 168 171 173 174 176 177 177 176 180 192 208 219 224 227 231 238 251 267
148 283 307 283 276 266 167 214 267 314 309 281 267 239 229 249 259 268 272 267 261 256 276 287 266 269 314 354 9 2 7 19 19 17 13 358 345 340 339 349 1 2 354 347 341 341 341 339 337 332 327 322 312 296 267 174 159 161 164 166 167 167 173 184 175 162 159 159 161 164 167 169 169 169 171 176 186 200 209 214 220 227 235 247 263 274
281 292 283 253 280 284 116 79 356 328 282 260 241 185 276 283 282 290 288 276 293 23 73 228 271 354 9 23 24 7 0 358 350 351 344 322 322 344 355 6 8 357 349 344 337 335 336 333 329 327 327 323 315 308 300 206 180 173 166 166 167 165 169 179 178 160 153 154 155 157 160 164 165 166 171 177 188 199 207 215 223 230 244 260 267 267
255 252 251 245 255 260 67 69 11 270 254 243 37 343 310 318 1 331 310 319 31 26 26 29 26 29 31 25 14 3 348 335 333 332 321 322 360 19 6 359 357 349 341 334 328 327 330 327 321 317 317 318 314 310 301 214 188 177 162 160 162 162 163 169 170 159 152 151 154 156 156 157 159 161 168 180 195 206 212 222 231 241 258 267 268 269
227 211 225 230 232 263 295 127 204 259 281 313 325 317 319 352 39 17 328 328 14 25 44 51 31 24 27 16 5 0 341 328 327 320 321 6 30 22 360 348 341 337 334 329 325 323 320 316 313 310 308 307 303 298 287 227 191 185 170 162 162 162 161 162 162 157 151 150 152 153 154 155 156 160 172 188 203 212 220 231 240 250 264 267 265 291
216 204 203 217 219 229 237 216 227 283 293 292 289 301 24 106 107 104 281 300 351 37 67 62 34 18 14 4 355 353 346 341 336 321 341 13 8 353 343 336 329 329 330 328 324 320 317 314 313 313 310 301 290 283 271 240 205 189 174 165 164 165 162 158 156 152 148 148 148 148 151 155 158 167 184 198 205 210 219 232 234 239 290 325 317 318
215 206 187 202 209 178 212 247 265 274 278 271 192 197 123 126 149 141 131 308 340 29 48 48 32 14 359 347 346 354 1 353 327 301 322 346 341 334 330 325 325 326 323 323 321 318 316 315 314 316 313 300 283 273 257 223 194 184 175 162 161 162 158 154 152 148 144 143 145 148 153 158 164 177 189 192 192 189 181 174 167 348 335 323 316 320
213 213 203 213 216 159 187 234 237 245 261 199 171 183 126 125 150 102 61 316 312 354 32 52 26 348 333 334 351 5 4 334 302 285 301 318 317 316 314 311 316 318 315 315 315 313 312 308 305 310 312 299 276 263 245 211 187 178 169 156 156 160 156 152 150 148 143 144 148 152 155 157 164 172 169 161 157 156 156 161 335 331 318 305 305 316
201 206 210 222 235 228 221 239 252 254 286 75 116 121 116 153 90 62 14 273 286 306 284 160 143 289 288 315 360 3 319 275 280 288 295 300 301 297 296 301 307 310 311 312 312 312 309 299 293 299 308 306 294 270 229 192 176 169 165 164 169 170 163 156 151 147 146 148 149 148 149 155 163 164 156 151 156 174 226 276 294 292 279 274 290 312
342 227 187 194 220 233 228 243 260 251 75 6 339 335 316 350 57 70 236 238 254 280 277 221 151 256 253 232 257 268 242 239 259 279 285 289 294 293 296 305 307 305 308 311 312 314 307 292 283 288 294 311 323 310 231 182 168 163 165 167 160 150 149 151 147 142 141 141 140 140 145 153 158 156 157 171 199 232 253 266 263 247 237 251 286 309
330 329 184 168 208 210 196 214 247 283 235 237 239 261 304 17 76 216 237 251 270 297 340 14 346 279 253 223 220 232 246 250 257 271 278 282 288 296 305 310 306 304 305 306 307 310 306 294 285 286 294 324 336 332 251 202 174 158 156 148 130 126 137 142 139 135 133 132 133 137 141 148 151 153 164 188 211 230 243 243 233 227 230 252 287 303
333 321 319 325 286 238 193 248 253 268 250 233 238 358 11 160 205 237 256 279 274 120 83 283 248 257 263 250 237 243 260 269 271 275 279 283 291 298 301 301 298 295 298 300 299 302 306 304 294 288 306 338 339 346 87 137 142 137 134 131 129 132 137 136 133 133 132 131 135 139 140 142 139 136 154 180 201 219 231 227 221 223 234 258 281 290
339 342 310 328 5 11 338 288 233 215 226 235 282 310 236 214 234 254 250 262 272 147 166 228 245 255 263 264 265 269 274 278 277 276 279 288 295 295 294 293 291 289 289 289 290 295 301 303 296 297 321 332 317 319 5 120 133 127 127 134 138 138 136 134 133 133 133 134 136 135 131 126 119 124 155 180 201 225 235 228 221 224 236 256 271 279
353 51 147 215 291 293 258 253 264 275 281 288 283 254 253 263 278 230 172 230 266 183 178 218 256 261 264 269 273 275 275 275 277 280 288 292 290 289 291 289 289 290 287 282 285 294 298 297 298 310 325 315 301 297 279 225 170 144 142 148 147 141 137 136 135 134 136 135 131 128 125 124 132 154 182 211 228 241 245 232 222 223 234 252 268 281
3 47 104 197 308 322 289 266 299 321 321 318 309 294 302 313 318 100 137 190 225 218 217 233 248 255 258 264 270 271 268 273 283 290 292 294 292 292 295 292 290 290 283 279 285 295 297 300 306 310 308 295 288 281 260 244 207 162 152 149 144 139 137 136 133 132 132 127 122 126 132 142 169 179 192 240 236 241 247 229 219 222 233 247 268 289
357 23 14 324 318 328 315 306 316 307 292 294 304 320 343 348 344 348 318 261 256 268 276 266 257 256 253 249 255 262 263 271 286 293 295 300 299 298 297 291 288 284 279 279 289 295 296 297 291 289 285 278 275 268 254 232 185 156 148 141 136 135 133 128 121 120 125 126 126 137 151 167 187 189 161 192 195 184 229 221 221 233 239 243 266 287
331 355 341 303 291 288 279 286 296 290 278 281 339 357 339 325 320 322 299 277 278 278 267 259 253 249 249 250 252 254 261 272 284 291 295 299 297 295 291 283 278 275 278 287 291 291 292 286 270 266 264 263 264 250 203 167 147 141 140 136 134 133 126 119 117 120 129 134 132 136 153 165 174 171 141 131 119 89 83 163 233 247 245 259 279 282
290 302 284 270 280 276 269 279 298 309 306 319 3 320 283 261 270 276 253 245 254 257 255 259 257 247 246 253 249 245 264 280 280 281 288 292 291 291 292 290 285 283 289 295 292 289 289 284 274 258 234 233 237 186 140 136 133 134 136 135 133 131 125 123 127 130 134 136 131 128 141 151 142 132 121 115 104 86 68 39 332 266 251 276 281 278
266 275 269 270 282 269 262 281 306 309 295 294 297 291 281 272 279 276 255 247 252 256 260 266 265 257 249 245 237 230 266 278 276 277 281 281 281 287 294 297 295 297 302 298 291 291 295 291 278 230 188 201 205 142 128 130 128 128 131 131 129 127 124 127 136 139 137 135 133 131 138 142 136 125 110 101 88 69 50 15 320 271 271 291 282 281
237 255 261 258 260 257 264 276 275 259 271 289 305 308 308 307 298 293 292 283 270 269 271 264 261 263 259 248 236 236 254 261 267 276 277 275 282 290 294 293 294 302 303 298 295 298 300 293 259 156 147 167 167 135 128 127 126 126 128 129 128 126 125 131 140 142 140 138 133 131 141 143 116 103 100 91 69 44 25 358 276 250 275 295 289 287
Height
758 769 775 774 773 770 767 764 766 766 765 768 770 772 773 773 771 759 753 750 747 758 764 761 764 763 761 761 760 758 757 757 759 759 759 761 762 763 764 765 767 769 769 769 771 773 775 778 780 783 786 788 791 794 796 799 802 804 806 808 809 809 810 811 812 813 814 815 816 817 818 818 819 820 821 821 821 821 822 822 823 823 824 825 825 826
759 774 775 767 765 763 762 761 761 763 765 768 771 773 773 774 772 760 755 753 748 758 764 760 763 764 760 760 758 758 761 760 759 759 759 759 761 761 761 762 764 765 767 769 771 773 774 777 780 782 784 787 789 792 793 796 799 802 804 807 808 809 810 811 812 813 814 814 815 816 817 818 819 820 821 821 821 821 821 821 822 823 824 825 825 826
769 774 767 759 759 759 759 758 760 764 766 770 771 774 777 773 768 764 760 758 755 762 768 766 768 768 761 758 757 757 760 760 757 756 756 756 758 760 760 761 762 763 765 769 772 774 775 777 779 782 783 785 787 790 792 794 797 799 802 805 807 808 809 810 811 812 812 813 814 815 816 817 818 819 820 821 820 821 821 821 822 823 824 824 825 826
777 770 758 755 757 757 760 759 761 765 767 770 772 776 780 772 771 774 768 763 760 764 769 770 772 771 764 761 759 756 756 756 755 754 753 754 755 756 758 759 761 762 764 768 770 772 774 776 778 780 782 784 786 788 791 793 795 797 799 802 805 807 808 809 810 811 812 813 814 815 816 817 818 819 820 820 821 821 821 822 822 823 823 824 824 825
769 758 749 753 756 757 762 762 762 769 772 771 770 774 777 772 772 774 769 765 763 765 765 769 779 777 767 766 762 755 753 753 753 754 754 753 752 753 755 757 759 760 762 765 769 771 773 775 777 778 780 782 784 786 788 791 793 794 796 800 803 805 807 808 809 810 811 812 813 815 816 817 818 819 820 820 821 821 822 822 822 822 823 823 824 824
760 751 747 753 756 756 762 765 764 769 775 775 770 767 768 767 768 769 768 769 776 779 768 770 791 788 769 767 765 757 755 753 751 752 754 753 752 753 754 756 758 759 760 761 764 768 770 772 775 777 778 781 782 784 786 788 791 792 795 798 801 803 805 806 807 809 810 811 813 814 815 816 817 818 819 819 820 821 821 822 822 822 823 823 824 824
754 750 747 752 756 758 762 766 763 764 776 781 769 760 761 763 765 768 768 773 784 786 770 769 791 793 774 765 760 756 756 753 751 751 751 752 752 753 753 754 755 756 758 758 760 763 766 768 772 775 777 779 780 782 785 787 789 791 793 796 799 801 803 805 806 807 809 810 812 813 813 814 815 817 818 818 819 820 821 821 821 822 822 823 823 824
754 753 753 753 756 761 765 767 762 760 775 779 763 756 760 762 766 768 768 773 778 777 773 770 780 790 784 767 755 753 755 753 751 751 749 750 751 751 751 752 752 752 754 756 758 760 764 766 769 772 775 776 778 781 783 786 788 790 792 795 797 800 801 803 805 806 807 809 810 811 812 813 814 815 816 817 818 819 820 820 821 821 822 823 823 824
752 756 757 755 759 763 763 762 757 757 769 768 757 756 757 758 764 765 767 772 772 777 786 778 775 789 790 767 752 752 756 757 753 749 747 747 748 748 749 749 749 750 751 752 754 756 760 763 766 768 771 774 776 779 781 783 786 788 791 794 796 798 799 801 803 805 806 808 809 810 811 812 813 814 815 816 817 818 819 820 820 821 821 822 823 823
749 750 750 753 759 761 757 754 752 757 763 759 754 756 756 757 761 763 769 772 774 785 794 783 776 790 791 769 757 757 756 755 750 746 745 743 742 743 744 745 745 747 748 749 750 752 755 758 762 765 768 772 774 776 779 781 784 787 790 793 795 796 798 799 801 803 805 806 807 809 810 810 812 813 814 815 816 817 818 819 820 820 820 821 822 822
745 741 743 747 752 752 750 750 750 752 755 753 754 759 761 762 762 766 769 771 785 796 791 780 774 784 791 773 758 755 750 746 744 743 743 741 740 740 739 740 741 743 746 747 749 751 753 756 760 764 767 770 773 775 778 780 782 785 788 791 793 794 796 798 799 802 803 805 806 807 809 809 810 811 812 813 814 816 817 817 818 819 820 820 821 822
746 746 746 743 743 745 749 752 750 747 748 751 757 763 772 775 773 777 777 779 799 802 784 775 770 778 792 776 754 748 742 738 739 738 739 741 741 740 738 738 738 739 743 746 749 751 753 756 760 763 767 769 772 775 777 779 781 784 786 789 791 793 795 796 798 800 802 803 805 806 807 808 809 809 810 811 813 814 815 816 817 818 818 819 820 821
754 751 746 742 740 741 751 758 756 751 749 753 759 768 783 793 793 797 796 794 802 796 776 770 771 778 784 767 749 745 738 734 733 731 733 736 738 739 738 737 736 737 741 744 747 750 752 756 759 762 765 767 770 772 774 777 779 781 784 787 789 791 793 794 796 798 800 802 803 805 806 807 808 808 809 810 811 812 813 814 816 816 817 818 819 820
764 755 746 746 745 741 748 760 766 762 757 759 763 772 788 800 807 810 803 798 799 790 773 766 772 780 776 758 744 739 735 732 731 729 728 728 731 735 735 735 735 736 740 743 745 748 750 753 755 758 761 763 765 768 770 773 776 779 782 784 786 788 790 792 794 796 798 800 802 803 805 806 806 807 808 809 809 810 812 813 814 815 816 817 818 818
773 771 755 749 748 744 746 752 758 758 758 759 756 764 779 787 797 804 798 797 798 791 779 771 776 780 773 758 741 733 732 729 729 730 729 727 727 729 732 734 735 735 737 740 742 744 747 748 751 753 756 758 760 763 765 768 772 775 779 781 784 786 788 789 791 794 796 798 800 802 803 804 805 806 807 808 808 809 810 811 812 813 814 815 816 817
771 771 750 742 741 741 745 743 743 751 761 758 750 761 774 771 776 786 786 786 790 795 788 779 776 768 757 749 735 731 732 728 729 729 729 731 728 728 732 733 735 736 735 737 740 741 744 745 747 750 752 755 757 759 762 765 768 771 774 778 781 783 785 787 789 791 793 795 798 799 801 802 803 804 805 806 807 808 809 810 811 812 813 814 815 816
771 768 748 742 742 738 740 739 737 749 761 761 759 765 763 754 759 776 783 779 783 797 791 778 776 767 757 752 738 735 737 732 733 732 730 734 731 729 732 732 734 736 735 737 738 740 743 744 746 747 750 752 755 758 760 761 764 767 770 774 777 780 783 785 787 788 791 793 795 797 799 800 801 802 804 805 806 807 808 809 809 810 811 812 813 814
766 770 754 747 751 742 735 736 736 739 748 760 766 760 751 750 755 768 783 786 790 801 791 778 781 778 775 768 747 739 743 739 737 736 733 735 736 735 734 733 733 732 733 735 737 739 741 743 745 746 748 751 752 755 757 759 761 764 767 770 774 777 779 782 784 786 788 790 792 794 796 798 799 800 802 803 805 805 806 807 808 809 810 811 812 812
759 772 763 749 753 748 737 742 748 741 739 749 755 749 752 767 772 773 783 790 796 803 793 781 780 777 776 770 753 748 750 745 742 742 739 738 739 739 737 737 737 735 734 734 735 739 740 741 744 745 746 749 750 752 754 756 759 762 764 767 770 774 776 779 782 784 786 788 790 792 794 795 797 798 800 801 802 803 804 805 806 807 809 809 810 811
755 773 775 756 751 753 749 754 763 758 747 744 747 747 751 763 771 773 775 779 788 797 794 787 783 776 766 758 754 755 754 751 748 746 745 743 742 742 740 740 742 741 741 739 737 739 740 741 742 742 744 746 748 750 752 754 757 759 762 765 768 771 773 777 779 781 784 786 788 790 792 793 795 796 798 799 801 801 802 804 805 806 807 808 809 809
755 771 780 768 758 762 765 762 762 762 758 756 758 758 757 757 761 767 770 771 780 792 796 795 792 777 756 748 752 755 753 751 749 747 746 744 743 744 743 744 744 743 744 742 740 740 740 741 741 741 742 743 745 747 749 751 754 756 759 761 764 768 771 774 776 779 781 783 785 788 789 791 793 794 796 798 799 800 801 802 803 805 806 806 807 808
763 769 777 777 772 773 771 760 754 756 759 762 765 763 762 762 764 774 781 775 774 784 791 796 800 782 755 746 750 753 752 750 749 749 749 746 744 744 743 744 744 743 743 742 741 742 741 741 742 742 742 744 746 749 750 752 753 755 757 758 761 764 767 770 773 776 778 780 783 785 787 789 790 792 794 796 798 799 800 801 802 803 804 805 805 806
767 770 776 779 776 772 765 756 754 754 753 757 761 760 759 761 764 777 785 777 774 780 781 788 798 781 753 744 747 750 751 749 748 749 749 749 747 746 745 744 744 745 744 742 741 741 742 742 743 743 742 743 744 746 749 752 753 754 754 755 757 760 763 766 769 772 775 778 781 783 785 787 789 791 793 794 796 797 799 800 801 802 803 803 804 804
767 772 779 781 775 768 762 757 754 753 753 759 761 759 760 762 762 767 771 769 772 778 778 786 793 774 749 743 747 748 747 746 747 748 749 751 750 749 749 748 747 747 746 744 742 741 741 741 742 744 745 745 744 743 743 745 748 750 751 752 754 756 759 762 765 768 771 775 778 781 784 785 787 789 791 793 795 796 798 799 800 801 801 802 802 803
772 776 782 787 788 782 777 772 767 763 764 768 767 763 763 762 761 763 764 767 774 775 774 785 789 770 750 745 746 746 746 746 748 749 750 751 751 751 751 750 750 749 747 747 745 743 742 741 741 743 745 748 749 747 744 742 742 744 747 749 750 752 755 758 761 764 768 772 775 778 781 783 786 788 790 792 794 795 797 798 799 800 800 801 801 801
774 779 783 791 798 798 793 786 780 778 776 773 770 767 765 763 765 768 769 774 780 775 771 779 780 766 753 748 748 748 749 749 749 750 750 750 751 752 752 751 752 751 750 748 746 746 745 743 742 742 744 746 747 748 748 746 744 743 744 744 745 748 751 754 758 761 764 769 772 775 778 781 783 786 788 790 792 794 796 797 798 799 799 800 800 801
774 780 781 787 792 793 792 785 778 779 780 778 774 769 767 765 764 769 774 779 779 777 777 775 770 765 759 753 752 753 753 754 752 751 751 751 752 753 753 752 751 750 750 749 747 746 745 743 742 741 741 743 743 744 746 748 749 751 751 748 745 745 748 751 755 759 762 766 769 772 775 778 781 784 787 789 791 793 795 796 797 798 798 799 799 800
775 781 779 782 783 782 783 781 777 779 779 777 773 769 767 766 767 771 777 776 774 780 783 772 764 768 764 755 754 756 757 757 755 753 753 753 753 753 752 753 751 750 750 748 747 746 745 744 743 740 739 739 740 741 742 744 747 752 757 758 752 746 747 750 753 756 760 764 767 770 773 776 779 783 786 788 790 792 794 795 796 797 797 798 798 798
773 779 777 778 779 777 777 777 776 777 776 772 771 768 766 768 770 772 772 770 770 778 779 769 767 771 765 757 757 757 756 757 755 754 753 752 752 752 753 754 754 753 752 751 749 748 748 747 745 742 739 736 736 737 737 739 741 744 753 761 761 753 748 748 750 754 758 762 765 769 772 775 778 782 785 787 789 791 792 794 795 796 796 796 796 797
770 776 774 775 776 774 774 774 772 773 773 770 767 765 765 768 769 770 769 768 768 771 770 767 768 768 764 761 758 754 754 754 753 753 753 753 754 755 756 757 757 756 756 754 752 751 750 748 745 743 741 738 736 733 732 734 737 740 746 754 761 761 755 750 749 752 756 759 763 767 771 774 778 781 784 786 788 790 791 793 794 795 795 795 795 796
769 774 771 770 775 775 772 771 771 771 772 769 765 764 766 767 767 768 768 766 767 767 765 766 769 766 761 758 755 752 752 753 754 756 757 758 759 758 758 757 756 756 756 755 754 752 750 748 745 744 743 741 739 736 732 731 732 736 740 745 753 759 760 754 749 750 754 757 762 767 770 774 777 780 783 785 787 789 790 792 793 793 794 794 794 795
771 775 771 772 779 779 772 771 771 770 770 769 768 768 769 767 768 768 765 764 764 765 765 768 771 767 760 757 756 754 754 756 759 760 760 761 760 759 758 757 757 758 758 757 755 753 751 750 748 746 744 743 741 740 737 734 731 731 734 739 744 751 758 759 754 752 753 756 761 766 770 774 777 779 782 784 786 788 789 791 791 792 793 793 793 794
772 776 776 778 782 779 773 771 771 774 779 777 770 767 766 765 766 766 764 762 762 764 768 773 773 770 764 762 763 762 761 761 762 762 761 761 760 760 759 759 759 759 758 757 755 753 752 751 749 747 745 743 742 740 738 736 733 730 731 735 739 744 753 761 761 756 754 757 762 766 770 774 777 779 782 784 785 787 788 789 790 791 792 792 793 794
772 775 778 779 782 782 776 772 776 785 787 777 763 758 761 762 764 766 765 764 764 766 770 772 772 771 769 768 769 768 766 765 764 763 762 760 760 761 761 761 760 759 758 757 755 754 752 750 748 747 746 744 742 740 740 737 734 731 730 732 736 740 748 758 762 759 756 758 763 767 771 774 777 780 782 783 785 786 787 788 789 790 792 792 793 792
773 775 779 779 781 783 778 779 790 792 778 764 758 756 757 759 762 765 765 764 767 767 767 768 771 772 772 772 772 771 769 766 764 763 761 759 760 762 763 762 760 759 758 757 756 755 753 752 749 747 746 745 742 740 740 739 736 734 733 733 736 739 744 752 759 760 758 759 764 768 771 774 777 780 781 783 784 785 786 787 789 790 791 792 792 792
772 775 777 777 779 781 781 787 795 784 764 758 761 759 758 760 764 767 767 766 767 768 767 769 772 772 772 773 772 771 770 766 763 761 760 760 762 763 762 761 760 758 757 756 755 755 753 752 750 748 746 744 742 740 739 738 737 736 735 736 738 741 743 748 755 758 757 759 764 768 772 775 777 779 780 782 783 784 785 787 788 790 790 791 791 791
766 771 774 776 777 779 783 786 784 775 766 764 764 763 763 765 767 770 772 771 769 770 770 771 772 772 771 772 771 771 770 766 764 762 759 759 761 761 760 759 758 756 755 754 754 753 752 751 749 747 746 743 741 738 737 736 736 735 735 736 738 740 743 746 751 754 755 759 764 768 772 775 777 778 780 781 782 783 785 786 787 789 789 790 790 790
758 763 768 774 773 774 781 785 784 784 778 770 768 769 766 765 766 768 773 775 773 772 771 771 772 773 773 773 773 772 770 769 768 764 760 759 759 759 758 756 755 754 753 752 751 750 750 749 747 745 743 740 737 734 733 733 733 734 736 738 740 740 741 744 748 751 754 758 763 767 771 774 776 778 779 780 781 783 784 785 787 787 788 789 788 788
754 758 763 770 772 772 780 787 788 785 776 768 770 770 767 766 765 766 774 780 777 773 772 771 773 774 773 774 774 773 775 776 773 766 761 760 760 759 757 755 753 752 751 750 750 749 748 747 745 742 740 736 732 730 729 729 729 730 733 739 743 745 744 744 747 750 753 758 762 766 770 773 776 777 778 779 780 782 783 784 785 786 787 787 787 787
755 761 767 775 778 776 780 787 784 776 771 771 772 770 767 766 765 772 785 786 777 773 772 770 771 773 772 774 775 776 778 778 773 766 762 761 760 758 755 753 751 750 749 748 747 747 746 744 741 739 737 733 730 727 725 724 724 727 730 735 741 745 746 746 746 748 752 757 761 765 769 772 775 776 776 778 779 781 782 783 784 785 785 785 785 785
757 760 766 775 779 779 785 792 784 773 775 781 778 774 771 769 772 784 790 782 772 771 770 769 771 772 771 773 775 776 775 774 769 765 762 761 759 756 754 752 750 749 747 746 745 744 742 740 737 735 733 731 728 726 724 723 722 724 729 734 738 741 744 746 746 748 752 756 761 765 769 771 774 775 775 777 779 780 781 782 782 783 783 782 782 781
763 763 764 768 772 770 775 781 778 774 779 782 778 775 774 777 783 784 778 771 769 770 769 770 771 770 770 771 772 772 771 769 766 763 761 759 757 755 753 751 749 747 746 745 744 742 740 736 734 732 730 728 727 725 723 723 723 725 729 733 736 739 743 746 747 748 753 757 760 765 768 771 773 773 774 776 778 779 779 780 780 780 780 780 779 778
769 771 770 769 769 768 768 771 775 779 780 776 774 775 776 777 778 773 767 767 768 767 768 769 769 768 769 769 769 769 767 765 764 761 758 756 755 753 751 749 747 745 744 743 742 740 738 735 732 730 727 726 726 725 723 723 724 727 730 732 734 738 743 746 748 750 753 757 760 764 767 769 770 771 773 775 776 776 776 777 777 777 777 777 776 775
772 774 777 776 776 778 779 776 775 777 775 771 772 776 774 771 769 767 767 767 766 765 767 768 767 767 767 767 767 767 765 763 761 758 756 755 753 751 749 747 745 743 741 740 739 737 736 733 730 728 726 725 725 725 725 725 727 729 732 734 735 738 742 745 748 750 753 757 760 763 765 767 768 770 772 773 773 774 774 774 774 774 774 774 773 773
777 777 780 781 779 779 780 777 772 771 769 768 769 771 769 767 765 765 766 766 765 765 766 766 766 766 765 765 766 765 763 761 759 757 755 753 751 749 747 744 743 741 739 737 736 735 733 731 729 727 726 726 726 725 726 728 730 732 733 735 736 738 740 743 746 750 753 756 759 762 764 766 768 770 770 771 771 771 771 772 772 772 772 772 771 771
777 780 782 781 780 777 775 772 769 768 767 766 766 766 766 766 765 765 765 765 764 765 764 764 765 764 763 764 764 763 762 759 756 755 754 751 750 747 745 743 740 738 736 734 733 731 730 729 728 727 726 726 726 725 726 729 732 733 733 734 736 737 739 743 745 748 751 754 758 761 764 766 767 768 769 769 769 770 770 770 770 771 771 770 770 770
780 782 782 782 782 782 777 771 768 769 768 766 766 767 767 768 768 767 767 766 764 764 764 763 763 762 761 762 761 760 759 756 754 754 752 750 749 746 743 741 738 735 734 731 730 729 729 728 728 727 727 726 725 724 725 728 732 733 733 733 735 736 739 741 743 746 750 754 758 762 764 765 766 766 767 767 767 768 769 769 769 769 769 769 769 769
785 784 784 782 782 782 779 772 768 767 766 765 767 768 768 768 768 767 768 768 766 764 763 761 760 759 758 758 758 757 755 754 753 752 750 749 748 744 741 738 735 733 731 728 727 727 727 727 727 727 728 726 723 722 725 727 729 730 731 732 734 735 737 739 742 747 752 756 759 762 763 764 764 765 765 765 766 767 767 767 767 768 768 768 767 766
785 785 784 782 781 780 777 771 768 767 767 765 767 767 766 766 765 764 766 766 765 762 760 758 757 756 754 754 754 753 752 751 750 749 749 748 746 743 740 736 733 731 728 726 725 725 724 723 723 724 724 723 722 723 725 725 726 727 729 731 733 734 736 739 744 749 753 756 759 761 762 763 763 764 764 764 765 765 765 766 766 766 766 766 765 764
785 785 781 781 784 782 776 771 769 771 770 767 765 765 765 764 763 762 763 762 761 759 758 756 755 753 752 751 751 750 750 749 748 748 748 747 744 741 738 735 732 729 726 724 724 723 721 719 719 719 720 720 721 722 723 723 725 726 728 730 732 734 736 740 745 750 754 756 759 760 761 762 762 763 763 763 764 764 765 765 765 764 764 764 763 761
782 781 778 779 781 777 771 768 767 768 768 765 763 764 763 763 762 762 761 760 758 757 756 755 753 751 750 749 748 748 748 747 747 747 746 744 742 738 735 733 730 727 725 724 723 721 718 716 715 716 716 718 720 721 722 723 725 726 728 730 733 736 738 742 747 751 754 757 758 759 760 761 762 762 762 763 764 764 764 764 764 763 763 762 760 759